Regional Weather Roundup
Issued by NWS

Home | Current Version | Previous Version | Text Only | Print | Product List | Glossary Off
Versions: 1 2 3 4 5 6 7 8 9 10 11 12 13 14 15 16 17 18 19 20 21 22 23 24 25 26 27 28 29 30 31 32 33 34 35 36 37 38 39 40 41 42 43 44 45 46 47 48 49 50

000
ASUS43 KOAX 050910
RWRNE

WEATHER ROUNDUP FOR NEBRASKA
NATIONAL WEATHER SERVICE OMAHA NE
300 AM CST MON DEC 05 2016

NOTES: SATELLITE DATA IS BEING USED TO AUGMENT CLOUD COVER ABOVE
       12000 FEET.
       "FAIR" INDICATES FEW OR NO CLOUDS BELOW 12,000 FEET WITH NO
       SIGNIFICANT WEATHER AND/OR OBSTRUCTIONS TO VISIBILITY.

  * THESE STATIONS DO NOT REPORT WEATHER SUCH AS RAIN...SNOW OR FOG.

NEZ001>004-019>022-054>056-051000-
NEBRASKA PANHANDLE

CITY           SKY/WX    TMP DP  RH WIND       PRES   REMARKS
SCOTTSBLUFF    CLOUDY    43  19  38 N3        29.59F
ALLIANCE       CLOUDY    36  20  52 S7        29.59S WCI  30
CHADRON        CLOUDY    39  22  50 SW7       29.55S WCI  34
KIMBALL        CLOUDY    33  20  60 SW9       29.64F WCI  25
SIDNEY         CLOUDY    36  15  42 SW8       29.64F WCI  30
$$

NEZ057>060-069>072-079>082-051000-
SOUTHWEST NEBRASKA

CITY           SKY/WX    TMP DP  RH WIND       PRES   REMARKS
NORTH PLATTE   CLOUDY    32  20  61 CALM      29.67F
IMPERIAL       CLOUDY    29  17  61 SE3       29.66F
LEXINGTON      CLOUDY    37  20  49 S8        29.71F WCI  31
MCCOOK         CLOUDY    34  20  56 SW6       29.70F WCI  29
OGALLALA       CLOUDY    37  20  51 CALM      29.65S
$$

NEZ005>010-023>029-035>040-094-051000-
NORTH CENTRAL NEBRASKA

CITY           SKY/WX    TMP DP  RH WIND       PRES   REMARKS
VALENTINE      CLOUDY    33  18  53 SW5       29.58F WCI  29
AINSWORTH      CLOUDY    36  19  51 SW12      29.60F WCI  27
BROKEN BOW     CLOUDY    36  21  54 SW5       29.68S WCI  32
O`NEILL        CLOUDY    35  22  58 S12       29.64F WCI  27
ORD            PTCLDY    36  19  50 SW10      29.68S WCI  28
THEDFORD       CLOUDY    39  19  45 SW7       29.63S WCI  34
$$

NEZ041-046>049-061>064-073>077-083>087-051000-
SOUTH CENTRAL NEBRASKA

CITY           SKY/WX    TMP DP  RH WIND       PRES   REMARKS
GRAND ISLAND   CLOUDY    38  26  62 S15       29.74F WCI  29
AURORA         MOCLDY    35  28  76 S12       29.76F WCI  26
HASTINGS       CLOUDY    37  26  64 S13       29.76F WCI  29
HEBRON         PTCLDY    33  28  80 S8        29.81F WCI  26
HOLDREGE       CLOUDY    35  23  61 S9        29.73F WCI  28
KEARNEY *      CLOUDY    36  23  60 S13       29.73F WCI  27
YORK           PTCLDY    32  28  86 S12       29.78S WCI  23
$$

NEZ011>018-030>034-042>045-051000-
NORTHEAST NEBRASKA

CITY           SKY/WX    TMP DP  RH WIND       PRES   REMARKS
NORFOLK        PTCLDY    37  26  64 S20       29.70F WCI  27
ALBION         PTCLDY    33  26  76 SE7       29.72S WCI  27
BLAIR          CLOUDY    34  31  90 S10       29.81F WCI  26
FREMONT        PTCLDY    34  29  82 SE6       29.81S WCI  29
TEKAMAH        CLOUDY    33  29  85 SE10      29.81F WCI  25
WAYNE          MOCLDY    34  29  83 S12       29.73F WCI  25
$$

NEZ050>053-065>068-078-088>093-051000-
SOUTHEAST NEBRASKA

CITY           SKY/WX    TMP DP  RH WIND       PRES   REMARKS
LINCOLN        CLOUDY    31  27  85 S10       29.83F WCI  22
OMAHA EPPLEY   CLOUDY    33  28  81 SE12      29.84F WCI  24
BEATRICE       CLOUDY    35  31  87 S9        29.85S WCI  28
FALLS CITY     CLEAR     34  31  88 S9        29.89F WCI  27
NEBRASKA CITY  CLEAR     34  31  88 S13       29.86S WCI  25
PLATTSMOUTH    PTCLDY    34  29  83 S9        29.84F WCI  26
$$

NEZ044-045-051>053-067-051000-
OMAHA AREA

CITY           SKY/WX    TMP DP  RH WIND       PRES   REMARKS
OMAHA EPPLEY   CLOUDY    33  28  81 SE12      29.84F WCI  24
BLAIR          CLOUDY    34  31  90 S10       29.81F WCI  26
FREMONT        PTCLDY    34  29  82 SE6       29.81S WCI  29
MILLARD        CLOUDY    30  29  96 SE5       29.83F WCI  25
OFFUTT AFB     PTCLDY    29  29 100 E6        29.84F WCI  23
PLATTSMOUTH    PTCLDY    34  29  83 S9        29.84F WCI  26
WAHOO          FAIR      28  25  91 SE5       29.81F WCI  22
$$




USA.gov is the U.S. government's official web portal to all federal, state and local government web resources and services.